TimeMDT,TemperatureF,Dew PointF,Humidity,Sea Level PressureIn,VisibilityMPH,Wind Direction,Wind SpeedMPH,Gust SpeedMPH,PrecipitationIn,Events,Conditions,WindDirDegrees,DateUTC
12:53 AM,28.9,24.1,82,30.12,10.0,ENE,3.5,-,N/A,,Clear,60,2014-04-21 06:53:00
1:53 AM,28.0,24.1,85,30.14,10.0,NNE,3.5,-,N/A,,Scattered Clouds,20,2014-04-21 07:53:00
2:53 AM,26.1,21.9,84,30.14,10.0,ENE,5.8,-,N/A,,Clear,70,2014-04-21 08:53:00
3:53 AM,25.0,21.9,88,30.16,10.0,NE,3.5,-,N/A,,Clear,50,2014-04-21 09:53:00
4:53 AM,25.0,21.0,85,30.14,10.0,ENE,3.5,-,N/A,,Clear,60,2014-04-21 10:53:00
5:53 AM,23.0,19.9,88,30.15,10.0,NNE,3.5,-,N/A,,Clear,20,2014-04-21 11:53:00
6:53 AM,25.0,21.0,85,30.18,10.0,NE,3.5,-,N/A,,Clear,50,2014-04-21 12:53:00
7:53 AM,32.0,23.0,69,30.16,10.0,North,3.5,-,N/A,,Clear,360,2014-04-21 13:53:00
8:53 AM,37.0,23.0,57,30.13,10.0,Calm,Calm,-,N/A,,Clear,0,2014-04-21 14:53:00
9:53 AM,39.9,23.0,51,30.12,10.0,South,6.9,-,N/A,,Clear,180,2014-04-21 15:53:00
10:53 AM,43.0,21.0,42,30.12,10.0,Variable,4.6,-,N/A,,Clear,0,2014-04-21 16:53:00
11:53 AM,45.0,19.9,37,30.13,10.0,SW,8.1,-,N/A,,Mostly Cloudy,220,2014-04-21 17:53:00
12:53 PM,48.0,17.1,29,30.09,10.0,WSW,11.5,18.4,N/A,,Overcast,240,2014-04-21 18:53:00
1:53 PM,48.0,18.0,30,30.09,10.0,WNW,8.1,-,N/A,,Overcast,300,2014-04-21 19:53:00
2:53 PM,50.0,15.1,25,30.09,10.0,Variable,5.8,-,N/A,,Mostly Cloudy,0,2014-04-21 20:53:00
3:53 PM,48.9,19.0,31,30.09,10.0,WNW,12.7,18.4,N/A,,Partly Cloudy,290,2014-04-21 21:53:00
4:53 PM,46.0,26.1,46,30.11,10.0,SW,8.1,19.6,N/A,,Mostly Cloudy,230,2014-04-21 22:53:00
5:53 PM,48.9,19.9,32,30.10,10.0,Calm,Calm,-,N/A,,Clear,0,2014-04-21 23:53:00
6:53 PM,48.9,18.0,29,30.07,10.0,Calm,Calm,-,N/A,,Clear,0,2014-04-22 00:53:00
7:53 PM,42.1,19.9,41,30.07,10.0,Calm,Calm,-,N/A,,Clear,0,2014-04-22 01:53:00
8:53 PM,37.9,18.0,45,30.07,10.0,NE,3.5,-,N/A,,Clear,50,2014-04-22 02:53:00
9:53 PM,39.0,19.0,45,30.05,10.0,ENE,3.5,-,N/A,,Clear,60,2014-04-22 03:53:00
10:53 PM,36.0,19.9,52,30.04,10.0,Calm,Calm,-,N/A,,Clear,0,2014-04-22 04:53:00
11:53 PM,30.9,21.0,67,30.07,10.0,NNE,3.5,-,N/A,,Clear,20,2014-04-22 05:53:00